Wind_Speed
11 11 11 12 12 12 13 14 14 15 15 16 15 16 16 16 17 17 18 18 19 19 20 21 21 21 22 23 23 23 24 25 25 26 27 27 28 28 28 28 28 28 30
11 11 11 12 12 13 13 14 14 14 14 15 15 16 16 17 17 18 18 19 19 20 21 21 21 22 22 23 23 24 24 25 25 26 26 27 28 29 29 28 29 30 31
12 12 12 12 13 14 15 14 14 14 14 15 16 17 17 17 18 18 19 19 20 20 21 21 22 22 23 23 24 24 24 25 26 27 28 27 27 28 28 29 31 31 32
12 13 13 13 14 14 14 15 15 15 15 16 16 17 17 17 17 18 19 19 20 20 21 22 23 24 25 25 25 25 26 26 27 28 28 27 28 28 29 31 32 33 34
12 12 13 13 14 14 14 14 15 15 16 16 16 16 17 17 18 18 18 19 19 20 21 21 22 23 23 24 24 26 26 27 27 28 28 28 29 30 31 32 32 32 33
12 13 13 13 13 13 14 14 14 15 15 16 16 16 17 17 17 17 18 18 20 21 22 22 22 23 24 25 25 25 26 26 27 27 27 28 30 31 32 32 32 32 32
13 13 13 13 13 14 13 13 14 15 16 16 17 17 18 18 17 18 19 20 20 21 21 22 23 24 24 25 25 25 25 26 28 28 28 29 31 32 33 32 32 33 33
14 14 14 14 14 14 14 13 13 14 15 16 17 18 18 18 19 19 20 20 21 22 23 23 24 24 25 25 26 26 27 27 28 28 28 29 30 31 32 33 33 34 33
13 14 14 14 13 14 14 14 14 14 15 16 17 18 19 19 19 20 21 22 23 24 24 24 24 25 25 25 26 26 27 28 28 28 29 29 30 31 32 33 33 33 33
14 14 14 14 14 14 14 15 15 16 17 17 18 18 19 19 20 21 22 22 24 24 24 24 25 25 26 27 27 27 27 27 28 28 29 29 30 31 32 33 34 34 34
15 15 15 15 15 15 15 15 16 16 17 18 19 19 19 20 21 22 22 23 24 25 25 25 26 26 27 27 27 27 27 28 28 29 29 30 31 32 33 34 34 34 34
16 16 16 16 16 16 16 17 17 17 18 19 19 20 20 21 22 23 23 24 24 25 25 26 27 27 27 28 28 28 29 29 30 30 31 32 33 33 33 33 33 33 33
17 17 17 17 18 18 18 18 19 19 19 19 20 20 21 22 23 24 25 25 25 25 25 26 26 27 27 28 29 29 30 30 31 32 32 33 33 33 33 33 34 34 34
18 18 19 19 20 20 20 20 20 20 20 21 21 21 22 23 24 25 25 25 26 26 26 26 26 27 28 29 30 31 31 32 32 32 33 33 33 33 33 33 34 34 34
19 20 20 21 21 21 21 21 21 22 22 22 23 23 24 24 25 26 26 27 27 27 27 27 28 29 29 30 31 31 31 32 32 32 33 33 33 33 33 33 33 34 34
21 21 22 22 22 22 22 22 23 23 23 23 24 25 25 25 26 26 26 26 27 27 27 28 29 30 31 31 31 31 32 32 32 32 32 32 32 33 33 34 35 35 35
21 21 21 22 22 22 22 22 23 23 24 25 25 25 26 26 26 26 27 27 28 28 28 29 30 30 30 31 31 32 32 32 32 32 32 33 34 34 34 35 35 35 35
22 22 22 22 23 23 24 24 25 25 25 26 26 26 26 27 27 27 27 27 28 29 29 29 30 30 31 31 31 31 31 32 32 32 33 33 34 34 34 35 35 35 35
23 23 23 24 24 25 25 25 26 26 26 27 27 28 27 27 27 28 28 29 29 29 29 30 30 31 31 31 31 32 32 32 33 33 33 34 34 34 34 34 34 34 33
24 24 24 25 25 25 25 26 26 27 27 27 28 28 28 28 28 29 29 29 29 29 29 30 31 31 31 31 32 32 33 33 33 33 34 34 34 34 34 33 33 32 32
24 24 25 25 25 25 25 26 26 27 27 27 28 28 28 28 28 28 28 28 28 29 29 30 31 31 32 32 33 33 34 34 33 34 34 33 33 33 32 32 32 32 31
24 24 24 25 25 25 26 26 27 27 27 27 28 28 28 27 27 27 27 28 29 29 30 31 31 32 32 33 33 33 33 33 33 32 32 31 31 31 31 30 30 30 29
24 24 24 25 25 25 25 26 26 26 27 27 27 26 26 26 26 27 28 29 29 30 30 31 32 32 32 32 32 32 32 31 31 31 30 30 29 29 29 28 28 27 27
24 24 24 24 24 24 25 25 26 26 26 26 25 25 25 26 27 27 28 29 29 30 30 30 30 31 31 31 31 31 30 30 29 29 28 28 27 27 26 26 26 25 26
23 23 23 23 23 23 23 24 24 24 24 25 24 25 25 26 27 27 28 28 29 29 29 29 30 30 30 30 29 28 28 28 27 27 27 26 25 25 25 24 24 24 25
21 22 22 22 22 22 22 23 23 24 24 25 25 25 26 26 26 27 27 28 28 28 28 28 29 29 28 28 27 27 26 26 26 25 25 25 24 24 24 24 24 25 25
Wind_Direction
273 275 276 276 272 271 270 272 273 271 268 269 270 268 270 272 272 272 269 268 269 270 272 274 274 273 275 276 277 278 278 277 277 276 277 278 278 281 282 281 280 281 280
275 278 279 280 279 276 275 276 275 272 271 271 271 273 274 274 273 272 271 269 269 271 274 276 275 274 274 277 278 278 280 280 279 279 280 278 278 279 280 280 280 280 280
278 280 281 281 282 280 279 278 275 273 273 273 274 276 277 275 274 274 275 272 273 273 275 276 276 276 278 278 279 280 280 281 279 278 279 279 279 280 279 279 280 280 280
279 282 283 283 283 284 283 280 276 275 276 278 278 277 277 276 276 277 276 274 275 275 278 278 279 279 279 279 279 280 280 281 281 280 279 277 279 281 281 281 281 281 281
280 285 287 288 287 285 286 282 277 275 276 278 278 278 280 281 280 280 277 276 278 279 280 281 281 281 282 284 282 282 282 283 284 284 281 280 280 281 283 284 283 284 283
285 287 289 291 292 289 287 285 281 278 276 277 278 281 282 282 281 279 278 280 283 282 282 281 282 284 286 285 286 287 286 287 286 287 286 283 283 284 285 285 285 285 283
284 288 290 291 293 295 292 290 287 283 280 279 279 280 280 279 279 280 281 282 283 284 285 284 285 286 287 289 289 290 290 289 289 287 286 285 285 285 285 287 289 290 288
283 286 288 291 294 296 297 295 294 291 289 285 283 283 281 279 280 281 281 283 284 285 285 285 287 287 287 289 290 290 290 290 290 290 290 289 288 288 289 289 289 291 290
283 286 287 288 291 293 295 296 294 292 292 289 288 285 283 282 282 283 284 285 285 287 287 287 289 290 290 291 292 292 292 291 292 292 293 292 292 291 291 291 292 292 292
281 284 287 290 292 294 295 297 295 293 293 292 291 286 285 285 286 286 288 288 288 289 290 290 290 290 290 292 293 294 293 293 294 294 294 294 295 294 294 294 294 294 293
278 281 285 289 291 292 295 297 297 297 296 295 294 292 288 288 288 289 290 290 291 291 291 291 290 291 291 293 294 295 295 295 295 296 296 296 296 296 296 296 295 295 294
277 280 284 287 289 291 293 295 296 297 297 296 295 294 291 290 290 290 291 291 292 291 291 291 292 292 293 293 294 295 296 296 296 296 297 296 296 297 297 296 295 296 296
277 280 283 287 289 291 292 294 295 296 297 298 296 294 293 292 293 294 294 293 293 293 294 296 297 296 296 296 297 299 299 299 299 298 299 298 297 297 296 296 296 296 297
276 278 282 286 289 291 291 292 294 296 296 296 295 296 296 296 295 294 294 296 296 296 297 297 298 299 298 298 298 299 300 300 299 299 299 299 298 297 297 297 297 297 297
275 278 281 284 287 288 290 292 294 294 295 295 296 296 296 296 296 295 294 296 296 297 297 297 297 297 298 299 299 299 299 299 299 300 300 299 298 297 297 297 298 298 297
277 280 282 284 287 288 289 291 292 294 295 295 297 299 298 297 297 298 298 298 297 297 297 297 297 298 298 300 300 300 300 300 300 300 301 300 299 299 299 299 299 299 299
279 281 283 286 288 289 290 292 294 295 296 297 297 298 298 298 298 299 299 298 298 298 298 299 300 301 301 301 301 301 300 301 300 300 301 301 300 299 299 299 300 300 300
279 281 284 286 287 289 291 292 294 295 296 297 298 300 299 299 299 298 298 298 298 299 300 300 301 301 302 301 301 301 302 302 301 301 301 301 301 300 299 300 301 301 301
280 281 283 285 287 288 290 292 293 295 295 296 298 299 299 299 298 297 297 298 298 299 299 300 300 301 302 302 301 302 301 301 301 301 302 302 301 301 301 301 301 302 302
279 282 284 286 287 288 290 292 293 295 296 297 297 298 298 298 298 299 299 298 299 299 300 301 301 302 303 303 303 303 303 302 302 303 303 302 301 300 301 301 301 302 302
278 281 284 286 288 289 292 294 295 296 297 298 298 299 298 298 299 299 300 300 300 301 302 302 302 302 302 303 304 304 304 303 303 303 303 302 302 302 302 301 302 302 303
278 280 283 286 289 291 293 295 296 297 298 299 301 300 299 298 298 299 299 300 300 300 301 302 303 302 302 303 304 304 305 305 305 305 305 305 305 305 304 304 303 304 304
279 281 284 287 290 292 293 295 297 298 298 299 300 300 300 300 300 299 299 300 301 301 302 302 302 302 303 303 304 306 307 307 307 307 307 307 308 308 307 307 306 306 306
278 280 283 286 289 291 294 297 299 299 299 299 299 299 299 300 300 300 301 301 302 303 303 302 303 304 305 305 306 308 309 309 310 310 310 309 309 309 309 310 311 311 310
279 282 284 287 289 293 296 299 301 302 301 301 300 299 298 299 300 300 301 302 302 303 304 305 305 305 305 306 308 309 310 311 312 313 313 313 312 312 312 313 314 315 314
282 284 285 287 291 294 296 298 300 301 301 302 304 303 301 301 301 301 301 301 302 303 305 306 306 306 307 308 309 310 311 312 314 315 315 315 315 315 314 313 313 315 316
Height
5882 5881 5881 5880 5880 5880 5880 5879 5879 5878 5879 5879 5879 5879 5879 5878 5878 5877 5877 5877 5877 5877 5876 5876 5875 5875 5874 5874 5873 5872 5871 5871 5870 5869 5867 5866 5865 5864 5863 5862 5861 5860 5859
5880 5879 5878 5878 5877 5877 5876 5876 5875 5875 5875 5875 5875 5875 5875 5874 5874 5873 5873 5873 5872 5872 5872 5871 5871 5870 5869 5868 5867 5866 5865 5864 5863 5862 5861 5859 5858 5857 5856 5854 5853 5852 5851
5877 5876 5876 5875 5875 5874 5873 5873 5872 5872 5872 5872 5872 5871 5871 5870 5870 5869 5868 5868 5868 5867 5867 5866 5865 5864 5863 5862 5861 5860 5859 5858 5857 5855 5854 5853 5851 5849 5848 5847 5845 5844 5842
5875 5874 5873 5873 5872 5871 5870 5869 5869 5868 5868 5868 5868 5867 5867 5866 5865 5865 5864 5863 5863 5862 5861 5860 5860 5859 5858 5856 5855 5854 5852 5851 5849 5847 5846 5845 5844 5842 5840 5839 5837 5835 5834
5872 5871 5871 5870 5869 5868 5867 5866 5865 5865 5865 5864 5864 5863 5863 5862 5861 5860 5859 5859 5858 5857 5856 5855 5854 5853 5852 5850 5849 5847 5845 5844 5842 5840 5839 5837 5836 5834 5832 5830 5828 5826 5824
5870 5869 5868 5867 5866 5864 5863 5862 5861 5861 5861 5860 5860 5859 5858 5858 5857 5856 5855 5854 5853 5852 5851 5850 5849 5847 5846 5844 5843 5841 5839 5837 5836 5834 5832 5830 5828 5826 5824 5822 5819 5817 5815
5867 5866 5865 5864 5863 5862 5860 5859 5858 5857 5856 5856 5855 5855 5854 5853 5852 5852 5851 5849 5848 5847 5845 5844 5843 5842 5840 5839 5837 5835 5832 5831 5829 5827 5825 5823 5821 5818 5816 5813 5811 5809 5806
5864 5863 5862 5861 5860 5859 5857 5856 5854 5853 5852 5851 5851 5850 5849 5848 5848 5847 5846 5845 5843 5842 5840 5838 5837 5835 5834 5832 5830 5828 5826 5824 5821 5819 5817 5815 5813 5810 5808 5805 5802 5800 5797
5861 5860 5859 5858 5857 5856 5854 5853 5852 5850 5849 5848 5847 5846 5845 5844 5843 5842 5841 5839 5838 5836 5834 5832 5831 5829 5828 5826 5824 5821 5819 5816 5814 5812 5809 5807 5804 5802 5799 5796 5793 5790 5787
5858 5857 5856 5855 5854 5853 5852 5850 5849 5848 5846 5844 5843 5841 5840 5839 5838 5837 5836 5834 5832 5830 5828 5827 5825 5823 5821 5819 5817 5814 5811 5809 5807 5804 5801 5799 5796 5793 5790 5787 5784 5781 5778
5854 5854 5853 5852 5851 5850 5848 5847 5845 5844 5842 5840 5839 5837 5836 5834 5833 5832 5830 5828 5826 5824 5822 5820 5818 5816 5814 5812 5809 5806 5804 5801 5798 5796 5793 5790 5787 5784 5781 5778 5775 5771 5768
5850 5850 5849 5848 5847 5846 5844 5843 5841 5840 5838 5836 5835 5833 5831 5829 5828 5826 5824 5822 5820 5817 5815 5813 5811 5809 5807 5804 5802 5799 5796 5793 5790 5787 5784 5781 5778 5775 5772 5769 5765 5762 5758
5846 5845 5845 5844 5843 5841 5840 5838 5837 5835 5833 5831 5830 5828 5826 5824 5822 5820 5818 5816 5813 5811 5809 5806 5804 5802 5799 5797 5794 5791 5788 5785 5782 5779 5776 5772 5769 5766 5762 5759 5756 5752 5749
5842 5841 5840 5839 5838 5836 5835 5833 5832 5830 5828 5826 5825 5823 5821 5819 5816 5814 5812 5810 5807 5805 5802 5800 5798 5795 5792 5789 5786 5783 5780 5777 5774 5770 5767 5763 5760 5757 5753 5750 5746 5743 5740
5837 5836 5835 5834 5832 5831 5829 5828 5826 5825 5823 5821 5819 5817 5815 5813 5810 5808 5806 5803 5801 5798 5796 5793 5790 5788 5785 5782 5778 5775 5772 5769 5765 5761 5758 5754 5751 5747 5744 5740 5737 5733 5729
5831 5831 5829 5828 5827 5825 5824 5822 5820 5819 5817 5815 5813 5811 5808 5806 5804 5801 5799 5796 5794 5791 5789 5786 5783 5780 5776 5773 5770 5766 5763 5760 5756 5752 5749 5745 5741 5738 5734 5730 5726 5723 5719
5826 5825 5824 5822 5821 5820 5818 5816 5815 5813 5811 5809 5807 5804 5802 5799 5797 5794 5792 5789 5787 5784 5781 5778 5775 5771 5768 5765 5761 5758 5754 5751 5747 5743 5740 5736 5732 5728 5724 5720 5716 5712 5708
5820 5819 5817 5816 5815 5813 5812 5810 5808 5806 5804 5802 5799 5797 5794 5792 5789 5787 5784 5782 5779 5776 5773 5770 5766 5763 5759 5756 5752 5749 5745 5742 5738 5734 5730 5726 5722 5718 5714 5710 5706 5702 5698
5813 5812 5811 5810 5809 5807 5805 5803 5801 5799 5797 5795 5792 5789 5787 5784 5782 5779 5776 5774 5771 5767 5764 5761 5758 5755 5751 5747 5744 5740 5736 5732 5728 5724 5720 5716 5712 5708 5704 5699 5695 5691 5688
5807 5806 5805 5804 5802 5800 5798 5796 5794 5792 5789 5787 5784 5782 5779 5776 5774 5771 5768 5765 5762 5759 5756 5753 5750 5746 5742 5739 5735 5731 5727 5723 5719 5715 5710 5706 5702 5698 5694 5690 5685 5682 5678
5800 5799 5798 5797 5795 5793 5791 5789 5787 5784 5782 5779 5777 5774 5771 5768 5766 5763 5760 5757 5754 5751 5748 5744 5741 5737 5734 5730 5726 5722 5717 5713 5709 5705 5700 5696 5692 5688 5684 5680 5676 5672 5669
5793 5792 5791 5790 5788 5786 5784 5782 5779 5777 5774 5772 5769 5766 5763 5760 5758 5755 5752 5749 5746 5743 5739 5736 5732 5729 5725 5721 5717 5713 5708 5704 5699 5695 5691 5687 5682 5679 5675 5671 5667 5664 5660
5787 5785 5784 5783 5781 5779 5777 5774 5772 5769 5767 5764 5761 5758 5756 5753 5750 5747 5744 5741 5738 5734 5731 5727 5723 5720 5716 5712 5708 5704 5699 5695 5691 5686 5682 5678 5674 5670 5666 5663 5659 5656 5652
5780 5778 5777 5775 5774 5772 5769 5767 5765 5762 5759 5756 5754 5751 5748 5745 5742 5739 5736 5733 5730 5726 5722 5719 5715 5711 5707 5703 5699 5695 5691 5687 5682 5678 5674 5670 5666 5663 5659 5656 5652 5649 5645
5773 5771 5770 5769 5767 5765 5763 5760 5758 5755 5752 5749 5746 5744 5741 5738 5735 5732 5728 5725 5722 5718 5715 5711 5707 5703 5699 5695 5691 5688 5684 5679 5675 5671 5667 5663 5660 5656 5653 5649 5646 5642 5639
5766 5765 5764 5762 5760 5758 5756 5754 5751 5749 5746 5743 5740 5736 5733 5730 5727 5724 5720 5717 5714 5710 5707 5703 5699 5695 5692 5688 5684 5680 5677 5673 5669 5665 5661 5657 5654 5650 5647 5643 5640 5637 5633